[[{"header":{"parameterUnit":"m.s-1","parameterCategory":2,"la1":30.2992,"la2":30.254,"lo1":-89.0895,"lo2":-89.0443,"dy":0.0025,"dx":0.0025,"nx":19,"ny":19,"refTime":"2026-04-19T21:00:00:Z","depth":"0","parameterNumber":2,"parameterNumberName":"U-component_of_CURRENTS"},"data":[0,0,0,-0.1467,-0.1468,-0.1495,-0.1495,-0.148,-0.148,0,0,0,0,0,0,0,0,0,0,0,-0.1452,-0.1452,-0.1467,-0.1468,-0.1495,-0.1495,-0.148,-0.148,0,0,0,0,0,0,0,0,0,0,0,-0.1452,-0.1452,-0.1452,-0.1468,-0.1495,-0.1495,-0.148,-0.147,0,0,0,0,0,0,0,0,0,0,-0.1449,-0.1439,-0.1452,-0.1452,-0.1468,-0.1495,-0.1495,-0.147,-0.1471,-0.1456,0,-0.1464,0,-0.1477,-0.1479,-0.1479,0,0,0,-0.1459,-0.1439,-0.1455,-0.1452,-0.1469,-0.1495,-0.148,-0.1471,-0.1471,-0.1457,-0.1464,-0.1464,-0.1477,-0.1479,-0.1478,-0.1491,-0.1491,0,0,-0.1458,-0.1447,-0.1454,-0.1455,-0.148,-0.148,-0.1481,-0.1472,-0.1468,-0.1464,-0.1464,-0.1476,-0.1478,-0.1478,-0.1491,-0.1491,0,0,0,-0.1459,-0.1445,-0.1462,-0.1455,-0.1467,-0.1481,-0.1483,-0.1468,-0.1476,-0.1464,-0.1476,-0.1478,-0.1478,-0.1491,-0.1491,-0.1524,0,0,0,-0.1458,-0.1447,-0.1461,-0.1453,-0.1468,-0.1474,-0.1479,-0.1477,-0.1476,-0.1476,-0.1478,-0.1478,-0.149,-0.1491,-0.1523,-0.1555,0,0,0,-0.145,-0.1446,-0.1453,-0.1453,-0.1471,-0.1475,-0.1482,-0.1477,-0.1484,-0.1479,-0.1478,-0.149,-0.1491,-0.1521,-0.1552,-0.1637,0,0,0,-0.1432,-0.1443,-0.1452,-0.1468,-0.147,-0.15,-0.1482,-0.1493,-0.1491,-0.1478,-0.149,-0.1491,-0.1521,-0.155,-0.1634,-0.1704,-0.1723,0,0,-0.1438,-0.1443,-0.1455,-0.1465,-0.1494,-0.1495,-0.1524,-0.1511,-0.1496,-0.1487,-0.1488,-0.1523,-0.1552,-0.1636,-0.1744,-0.1762,0,0,0,-0.1453,-0.1458,-0.147,-0.1488,-0.1512,-0.1539,-0.1531,-0.1536,-0.1536,-0.15,-0.1528,-0.1546,-0.1598,-0.1634,-0.1648,-0.1724,-0.1494,-0.1494,-0.1494,-0.1428,-0.1454,-0.1472,-0.1505,-0.153,-0.1563,-0.1591,-0.1596,-0.156,-0.1571,-0.1575,-0.1667,-0.1703,-0.1715,-0.1792,-0.1569,-0.1569,-0.1569,-0.1569,-0.1426,-0.1433,-0.1475,-0.15,-0.1543,-0.1566,-0.163,-0.1631,-0.1684,-0.1623,-0.1673,-0.1669,-0.1734,-0.1809,-0.1571,-0.1571,-0.1571,-0.1571,-0.157,-0.1396,-0.1404,-0.1425,-0.1467,-0.1516,-0.1567,-0.1663,-0.1693,-0.1722,-0.1766,-0.1829,-0.1829,-0.1897,-0.179,-0.1791,-0.1791,-0.1792,-0.1792,-0.1792,-0.1347,-0.1375,-0.1386,-0.1435,-0.1467,-0.1546,-0.168,-0.1766,-0.1875,-0.1894,-0.1895,-0.1947,-0.1735,-0.1729,-0.18,-0.1799,-0.1798,-0.1797,-0.1796,-0.1296,-0.1309,-0.1331,-0.1359,-0.1456,-0.1555,-0.1706,-0.1932,-0.2033,-0.2108,-0.2158,-0.1981,-0.1992,-0.198,-0.198,-0.2112,-0.2112,-0.2112,-0.2112,-0.1245,-0.1259,-0.1283,-0.1334,-0.1429,-0.1562,-0.1801,-0.2039,-0.225,-0.2332,-0.233,-0.2285,-0.2269,-0.2292,-0.2273,-0.2278,-0.2483,-0.2483,-0.2484,-0.1196,-0.1222,-0.1221,-0.1292,-0.1407,-0.1579,-0.1806,-0.2165,-0.2452,-0.2503,-0.2428,-0.2413,-0.2344,-0.2312,-0.2339,-0.2306,-0.2308,0,0]},{"header":{"parameterUnit":"m.s-1","parameterCategory":2,"la1":30.2992,"la2":30.254,"lo1":-89.0895,"lo2":-89.0443,"dy":0.0025,"dx":0.0025,"nx":19,"ny":19,"refTime":"2026-04-19T21:00:00:Z","depth":"0","parameterNumber":3,"parameterNumberName":"V-component_of_CURRENTS"},"data":[0,0,0,-0.0319,-0.0317,-0.0207,-0.0207,-0.0055,-0.0054,0,0,0,0,0,0,0,0,0,0,0,-0.036,-0.036,-0.0319,-0.0317,-0.0207,-0.0207,-0.0055,-0.0054,0,0,0,0,0,0,0,0,0,0,0,-0.036,-0.036,-0.0359,-0.0316,-0.0207,-0.0207,-0.0056,-0.0137,0,0,0,0,0,0,0,0,0,0,-0.0244,-0.0289,-0.036,-0.0359,-0.0316,-0.0208,-0.0206,-0.0141,-0.0132,-0.0106,0,-0.0101,0,-0.0079,-0.0045,-0.0045,0,0,0,-0.0301,-0.0297,-0.0269,-0.0359,-0.0315,-0.0208,-0.0252,-0.0136,-0.0126,-0.0095,-0.0099,-0.0093,-0.0076,-0.0044,-0.0043,0.0051,0.0051,0,0,-0.0307,-0.0333,-0.0277,-0.0264,-0.0301,-0.0256,-0.0249,-0.013,-0.0124,-0.0098,-0.0089,-0.0074,-0.0043,-0.0042,0.0051,0.0051,0,0,0,-0.0335,-0.0337,-0.0312,-0.027,-0.0253,-0.0253,-0.0245,-0.0129,-0.0122,-0.0088,-0.0072,-0.0042,-0.0041,0.0051,0.0051,-0.0014,0,0,0,-0.0338,-0.0354,-0.0315,-0.0328,-0.0256,-0.0192,-0.0248,-0.013,-0.0116,-0.0073,-0.0042,-0.004,0.0051,0.0051,-0.0013,-0.0059,0,0,0,-0.0362,-0.0356,-0.0349,-0.033,-0.0289,-0.0193,-0.0178,-0.0127,-0.0107,-0.0044,-0.0039,0.0051,0.0051,-0.0011,-0.0055,-0.007,0,0,0,-0.0384,-0.0389,-0.035,-0.0346,-0.029,-0.0234,-0.0178,-0.0125,-0.0077,-0.0042,0.0051,0.0051,-0.0011,-0.0053,-0.0068,-0.0121,-0.0134,0,0,-0.0405,-0.0392,-0.0389,-0.0352,-0.0325,-0.0247,-0.0204,-0.012,-0.0065,0.0015,0.0018,-0.0013,-0.0055,-0.0069,-0.0117,-0.0131,0,0,0,-0.0406,-0.0407,-0.039,-0.0363,-0.0308,-0.0259,-0.0167,-0.0124,-0.0053,-0.0038,0.0007,-0.0017,-0.0025,-0.0051,-0.0062,0.0153,0.0051,0.0051,0.0051,-0.0464,-0.0434,-0.043,-0.0385,-0.0347,-0.0255,-0.0212,-0.0135,-0.0072,-0.0053,-0.0055,-0.0093,-0.0121,-0.013,0.0093,-0.0027,-0.0028,-0.0028,-0.0028,-0.0506,-0.0508,-0.0467,-0.0455,-0.0395,-0.035,-0.0248,-0.02,-0.0138,-0.0089,-0.0092,-0.01,-0.0146,0.0097,-0.0032,-0.0031,-0.0031,-0.003,-0.003,-0.0551,-0.055,-0.0538,-0.0522,-0.0496,-0.0418,-0.0409,-0.0311,-0.0214,-0.0212,-0.0212,-0.0211,-0.0011,-0.0203,-0.0204,-0.0204,-0.0204,-0.0204,-0.0205,-0.0605,-0.0593,-0.0615,-0.0593,-0.06,-0.0585,-0.0501,-0.0465,-0.0371,-0.0296,-0.0295,0.0005,-0.0146,-0.0154,-0.0209,-0.0208,-0.0207,-0.0207,-0.0207,-0.0656,-0.0657,-0.0698,-0.0718,-0.0748,-0.0819,-0.0719,-0.0649,-0.0561,-0.0525,-0.0116,-0.0326,-0.031,-0.0301,-0.0311,-0.0404,-0.0404,-0.0404,-0.0404,-0.07,-0.0699,-0.0786,-0.0853,-0.0915,-0.0935,-0.1025,-0.0879,-0.0457,-0.0209,-0.0072,-0.0006,-0.0008,0.0033,0.0034,0.0034,0.0032,0.0033,0.0034,-0.0735,-0.0759,-0.0846,-0.0917,-0.1006,-0.1092,-0.1222,-0.1081,-0.0346,0.008,0.0244,0.0225,0.0354,0.0333,0.0423,0.0408,0.0416,0,0]}],[{"header":{"parameterUnit":"m.s-1","parameterCategory":2,"la1":30.2992,"la2":30.254,"lo1":-89.0895,"lo2":-89.0443,"dy":0.0025,"dx":0.0025,"nx":19,"ny":19,"refTime":"2026-04-19T21:00:00:Z","depth":"2","parameterNumber":2,"parameterNumberName":"U-component_of_CURRENTS"},"data":[0,0,0,-0.1398,-0.1399,-0.1429,-0.1429,-0.1415,-0.1415,0,0,0,0,0,0,0,0,0,0,0,-0.1382,-0.1383,-0.1398,-0.1399,-0.1429,-0.1429,-0.1415,-0.1415,0,0,0,0,0,0,0,0,0,0,0,-0.1382,-0.1383,-0.1383,-0.1399,-0.1429,-0.1429,-0.1415,-0.1404,0,0,0,0,0,0,0,0,0,0,-0.138,-0.1371,-0.1382,-0.1383,-0.14,-0.1429,-0.1429,-0.1403,-0.1404,-0.1389,0,-0.1398,0,-0.1411,-0.1414,-0.1414,0,0,0,-0.1391,-0.137,-0.1386,-0.1383,-0.14,-0.1429,-0.1413,-0.1404,-0.1405,-0.139,-0.1398,-0.1398,-0.1411,-0.1413,-0.1413,-0.1426,-0.1426,0,0,-0.1389,-0.1378,-0.1386,-0.1387,-0.1412,-0.1413,-0.1415,-0.1405,-0.1402,-0.1398,-0.1398,-0.1411,-0.1413,-0.1413,-0.1425,-0.1426,0,0,0,-0.139,-0.1377,-0.1394,-0.1387,-0.14,-0.1414,-0.1416,-0.1402,-0.141,-0.1398,-0.141,-0.1413,-0.1413,-0.1425,-0.1426,-0.146,0,0,0,-0.1389,-0.1378,-0.1393,-0.1385,-0.14,-0.1408,-0.1413,-0.1411,-0.1411,-0.1411,-0.1413,-0.1413,-0.1425,-0.1425,-0.1458,-0.149,0,0,0,-0.138,-0.1377,-0.1384,-0.1385,-0.1404,-0.1409,-0.1416,-0.1411,-0.1418,-0.1414,-0.1413,-0.1425,-0.1425,-0.1456,-0.1487,-0.157,0,0,0,-0.1363,-0.1375,-0.1384,-0.1401,-0.1403,-0.1433,-0.1416,-0.1427,-0.1426,-0.1413,-0.1425,-0.1425,-0.1456,-0.1485,-0.1567,-0.1623,-0.1641,0,0,-0.137,-0.1375,-0.1387,-0.1397,-0.1426,-0.1428,-0.1457,-0.1445,-0.1431,-0.1422,-0.1422,-0.1458,-0.1487,-0.1569,-0.1663,-0.168,0,0,0,-0.1384,-0.139,-0.1402,-0.1421,-0.1444,-0.1472,-0.1465,-0.147,-0.1471,-0.1435,-0.1463,-0.148,-0.1531,-0.1559,-0.1572,-0.1429,-0.1429,-0.1429,-0.1429,-0.1362,-0.1387,-0.1406,-0.1438,-0.1463,-0.1496,-0.1524,-0.1529,-0.1494,-0.1506,-0.151,-0.1601,-0.1628,-0.164,-0.1504,-0.1504,-0.1505,-0.1505,-0.1505,-0.1361,-0.1368,-0.1409,-0.1434,-0.1477,-0.15,-0.1563,-0.1564,-0.1618,-0.1558,-0.1606,-0.1596,-0.1657,-0.1507,-0.1507,-0.1507,-0.1506,-0.1506,-0.1506,-0.1333,-0.134,-0.1362,-0.1403,-0.1452,-0.1503,-0.1597,-0.1627,-0.1656,-0.1699,-0.1752,-0.1752,-0.1649,-0.1723,-0.1724,-0.1725,-0.1725,-0.1725,-0.1726,-0.1285,-0.1312,-0.1324,-0.1373,-0.1405,-0.1483,-0.1614,-0.1698,-0.1801,-0.1816,-0.1817,-0.1676,-0.1669,-0.1663,-0.1733,-0.1732,-0.1731,-0.173,-0.173,-0.1235,-0.1249,-0.1271,-0.1299,-0.1394,-0.1479,-0.1635,-0.1852,-0.1952,-0.2021,-0.1902,-0.1895,-0.1904,-0.1893,-0.1893,-0.2019,-0.2019,-0.2019,-0.2019,-0.1186,-0.1199,-0.1225,-0.1275,-0.1367,-0.1481,-0.1673,-0.1824,-0.1954,-0.1948,-0.195,-0.1876,-0.1868,-0.1869,-0.1858,-0.1854,-0.1971,-0.197,-0.197,-0.1138,-0.1163,-0.1164,-0.1234,-0.1344,-0.1485,-0.162,-0.1719,-0.1823,-0.1958,-0.1836,-0.2036,-0.1932,-0.1917,-0.1917,-0.19,-0.1894,0,0]},{"header":{"parameterUnit":"m.s-1","parameterCategory":2,"la1":30.2992,"la2":30.254,"lo1":-89.0895,"lo2":-89.0443,"dy":0.0025,"dx":0.0025,"nx":19,"ny":19,"refTime":"2026-04-19T21:00:00:Z","depth":"2","parameterNumber":3,"parameterNumberName":"V-component_of_CURRENTS"},"data":[0,0,0,-0.0245,-0.0243,-0.0138,-0.0138,0.0011,0.0013,0,0,0,0,0,0,0,0,0,0,0,-0.0284,-0.0284,-0.0245,-0.0243,-0.0138,-0.0137,0.0011,0.0013,0,0,0,0,0,0,0,0,0,0,0,-0.0284,-0.0284,-0.0284,-0.0242,-0.0138,-0.0137,0.0011,-0.0068,0,0,0,0,0,0,0,0,0,0,-0.017,-0.0215,-0.0284,-0.0284,-0.0242,-0.0138,-0.0137,-0.0072,-0.0063,-0.0037,0,-0.0033,0,-0.0012,0.0021,0.0022,0,0,0,-0.0227,-0.0223,-0.0196,-0.0284,-0.0241,-0.0139,-0.0181,-0.0067,-0.0057,-0.0025,-0.0031,-0.0025,-0.0009,0.0022,0.0023,0.0115,0.0115,0,0,-0.0232,-0.0258,-0.0203,-0.019,-0.0229,-0.0184,-0.0178,-0.0061,-0.0056,-0.003,-0.0021,-0.0007,0.0023,0.0024,0.0115,0.0115,0,0,0,-0.026,-0.0262,-0.0238,-0.0197,-0.0181,-0.0182,-0.0174,-0.0061,-0.0054,-0.002,-0.0005,0.0024,0.0025,0.0115,0.0115,0.0049,0,0,0,-0.0263,-0.0279,-0.0241,-0.0254,-0.0184,-0.0122,-0.0177,-0.0062,-0.0048,-0.0006,0.0024,0.0027,0.0115,0.0115,0.0051,0.0006,0,0,0,-0.0286,-0.0281,-0.0274,-0.0256,-0.0217,-0.0124,-0.0109,-0.0058,-0.004,0.0022,0.0027,0.0115,0.0115,0.0053,0.0009,-0.0005,0,0,0,-0.0307,-0.0314,-0.0275,-0.0273,-0.0219,-0.0164,-0.0109,-0.0058,-0.0011,0.0025,0.0115,0.0115,0.0053,0.0011,-0.0003,-0.0052,-0.0065,0,0,-0.033,-0.0317,-0.0315,-0.0278,-0.0253,-0.0177,-0.0135,-0.0053,0.0001,0.0081,0.0083,0.0051,0.001,-0.0005,-0.0049,-0.0062,0,0,0,-0.0331,-0.0334,-0.0317,-0.0292,-0.0238,-0.019,-0.01,-0.0058,0.0012,0.0027,0.007,0.0047,0.0039,0.0015,0.0005,0.0115,0.0115,0.0115,0.0115,-0.0393,-0.0362,-0.0359,-0.0315,-0.0278,-0.0188,-0.0145,-0.0069,-0.0007,0.001,0.0008,-0.003,-0.0055,-0.0064,0.0036,0.0035,0.0035,0.0035,0.0035,-0.0437,-0.0439,-0.0397,-0.0386,-0.0328,-0.0284,-0.0182,-0.0135,-0.0074,-0.0026,-0.0029,-0.0035,-0.008,0.003,0.0031,0.0031,0.0032,0.0032,0.0033,-0.0482,-0.0482,-0.0471,-0.0455,-0.043,-0.0352,-0.0343,-0.0247,-0.0151,-0.0148,-0.0146,-0.0145,-0.0082,-0.0141,-0.0141,-0.0141,-0.0141,-0.0141,-0.0142,-0.0538,-0.0526,-0.0549,-0.0528,-0.0535,-0.052,-0.0436,-0.0399,-0.0305,-0.023,-0.0229,-0.0089,-0.0083,-0.0091,-0.0146,-0.0145,-0.0145,-0.0144,-0.0144,-0.0591,-0.0592,-0.0634,-0.0653,-0.0682,-0.0742,-0.065,-0.0577,-0.0491,-0.0455,-0.0262,-0.0258,-0.0241,-0.0231,-0.0242,-0.0333,-0.0333,-0.0333,-0.0333,-0.0636,-0.0636,-0.0723,-0.0788,-0.0848,-0.0853,-0.0918,-0.0752,-0.0522,-0.0377,-0.0374,-0.0345,-0.0337,-0.0322,-0.0311,-0.0321,-0.0433,-0.0433,-0.0433,-0.0672,-0.0696,-0.0783,-0.0852,-0.0937,-0.0999,-0.1077,-0.0885,-0.0516,-0.0433,-0.0353,-0.0347,-0.0296,-0.0287,-0.0254,-0.024,-0.0251,0,0]}],[{"header":{"parameterUnit":"m.s-1","parameterCategory":2,"la1":30.2992,"la2":30.254,"lo1":-89.0895,"lo2":-89.0443,"dy":0.0025,"dx":0.0025,"nx":19,"ny":19,"refTime":"2026-04-19T21:00:00:Z","depth":"4","parameterNumber":2,"parameterNumberName":"U-component_of_CURRENTS"},"data":[0,0,0,-0.1012,-0.1014,-0.1108,-0.1108,-0.1141,-0.1141,0,0,0,0,0,0,0,0,0,0,0,-0.098,-0.0981,-0.1012,-0.1015,-0.1108,-0.1108,-0.1141,-0.1141,0,0,0,0,0,0,0,0,0,0,0,-0.098,-0.098,-0.0981,-0.1015,-0.1107,-0.1108,-0.1141,-0.1091,0,0,0,0,0,0,0,0,0,0,-0.1011,-0.0994,-0.098,-0.0982,-0.1016,-0.1107,-0.1108,-0.1089,-0.1094,-0.1075,0,-0.1098,0,-0.1121,-0.1142,-0.1142,0,0,0,-0.101,-0.0991,-0.1017,-0.0982,-0.1016,-0.1107,-0.1064,-0.1093,-0.1098,-0.1081,-0.1099,-0.1101,-0.1121,-0.1142,-0.1142,-0.1177,-0.1177,0,0,-0.1005,-0.0992,-0.1014,-0.1021,-0.105,-0.1061,-0.1067,-0.1097,-0.1102,-0.1099,-0.1102,-0.1122,-0.1142,-0.1142,-0.1177,-0.1177,0,0,0,-0.0993,-0.0988,-0.1016,-0.1019,-0.1043,-0.1064,-0.1071,-0.1101,-0.1112,-0.1103,-0.1122,-0.1142,-0.1142,-0.1176,-0.1177,-0.1211,0,0,0,-0.099,-0.0982,-0.1014,-0.1006,-0.1043,-0.1085,-0.1075,-0.111,-0.1114,-0.1122,-0.1142,-0.1142,-0.1176,-0.1177,-0.1209,-0.1234,0,0,0,-0.0974,-0.098,-0.0994,-0.1005,-0.1048,-0.1086,-0.1098,-0.1112,-0.1125,-0.1142,-0.1142,-0.1176,-0.1177,-0.1207,-0.1231,-0.1301,0,0,0,-0.0951,-0.0974,-0.0994,-0.1026,-0.1047,-0.1101,-0.1098,-0.1137,-0.1154,-0.1142,-0.1176,-0.1177,-0.1207,-0.1229,-0.1299,-0.1164,0,0,0,-0.0964,-0.0975,-0.0994,-0.1014,-0.1063,-0.1087,-0.1138,-0.1159,-0.1157,-0.1158,-0.116,-0.1209,-0.1231,-0.1301,-0.1209,0,0,0,0,-0.0987,-0.1,-0.1019,-0.1055,-0.1096,-0.1144,-0.1168,-0.1184,-0.1209,-0.1172,-0.1215,-0.1228,-0.1271,-0.1185,-0.1181,-0.118,-0.118,-0.118,-0.118,-0.0968,-0.1,-0.1033,-0.1079,-0.1119,-0.1181,-0.1223,-0.1247,-0.1229,-0.1251,-0.1259,-0.1341,-0.1248,-0.1258,-0.1258,-0.1258,-0.1258,-0.1258,-0.1259,-0.097,-0.0981,-0.104,-0.1083,-0.1143,-0.1189,-0.1265,-0.1282,-0.1347,-0.1304,-0.1344,-0.1229,-0.1262,-0.1261,-0.1261,-0.126,-0.126,-0.126,-0.126,-0.0934,-0.0944,-0.0988,-0.1055,-0.1127,-0.1198,-0.1286,-0.1339,-0.1381,-0.1424,-0.1355,-0.1385,-0.138,-0.145,-0.145,-0.1451,-0.1451,-0.1451,-0.1451,-0.0868,-0.0914,-0.0949,-0.1027,-0.1075,-0.1162,-0.1304,-0.1372,-0.1439,-0.1395,-0.1445,-0.1406,-0.14,-0.1392,-0.1458,-0.1457,-0.1456,-0.1455,-0.1455,-0.0803,-0.0834,-0.088,-0.0929,-0.1045,-0.1105,-0.1261,-0.1371,-0.1448,-0.1457,-0.139,-0.1391,-0.1379,-0.1374,-0.1364,-0.1425,-0.1423,-0.1422,0,-0.0744,-0.0767,-0.0824,-0.0889,-0.0967,-0.1072,-0.116,-0.1268,-0.134,-0.1286,-0.1438,-0.1357,-0.1358,-0.1336,-0.133,-0.1314,0,0,0,-0.0693,-0.0725,-0.0743,-0.0832,-0.092,-0.1041,-0.1177,-0.119,-0.1309,-0.1364,-0.1385,-0.1395,-0.1448,-0.1477,-0.1462,-0.1455,-0.1443,0,0]},{"header":{"parameterUnit":"m.s-1","parameterCategory":2,"la1":30.2992,"la2":30.254,"lo1":-89.0895,"lo2":-89.0443,"dy":0.0025,"dx":0.0025,"nx":19,"ny":19,"refTime":"2026-04-19T21:00:00:Z","depth":"4","parameterNumber":3,"parameterNumberName":"V-component_of_CURRENTS"},"data":[0,0,0,-0.0025,-0.0024,0.0038,0.0038,0.015,0.0151,0,0,0,0,0,0,0,0,0,0,0,-0.0048,-0.0048,-0.0025,-0.0024,0.0038,0.0038,0.015,0.0151,0,0,0,0,0,0,0,0,0,0,0,-0.0048,-0.0048,-0.0048,-0.0024,0.0038,0.0038,0.0149,0.0098,0,0,0,0,0,0,0,0,0,0,0.0036,0.0004,-0.0048,-0.0048,-0.0024,0.0038,0.0038,0.0096,0.0102,0.0126,0,0.0123,0,0.0134,0.0157,0.0158,0,0,0,-0.0008,-0.0001,0.0013,-0.0048,-0.0023,0.0038,0.0015,0.0099,0.0106,0.0133,0.0124,0.0129,0.0135,0.0158,0.0158,0.0226,0.0226,0,0,-0.0011,-0.0028,0.0008,0.0017,-0.0023,0.0012,0.0016,0.0103,0.0106,0.0125,0.0131,0.0137,0.0159,0.0159,0.0226,0.0226,0,0,0,-0.0032,-0.0031,-0.0019,0.0012,0.0018,0.0014,0.0018,0.0102,0.0104,0.0132,0.0139,0.0159,0.016,0.0226,0.0226,0.0167,0,0,0,-0.0033,-0.0044,-0.0021,-0.0029,0.0015,0.0056,0.0015,0.0099,0.0108,0.0138,0.0159,0.0161,0.0226,0.0226,0.0168,0.0129,0,0,0,-0.0048,-0.0045,-0.0044,-0.003,-0.0011,0.0055,0.0063,0.0101,0.0112,0.0158,0.0162,0.0226,0.0226,0.017,0.0132,0.0117,0,0,0,-0.0058,-0.0071,-0.0044,-0.0052,-0.0012,0.0017,0.0063,0.0095,0.0129,0.016,0.0226,0.0226,0.017,0.0134,0.0119,0.0061,0,0,0,-0.0081,-0.0074,-0.0078,-0.0053,-0.0048,0.0011,0.0033,0.0095,0.0139,0.0203,0.0204,0.0168,0.0132,0.0117,0.0061,0,0,0,0,-0.009,-0.0096,-0.0089,-0.0079,-0.0045,-0.0014,0.0053,0.0086,0.014,0.0157,0.0184,0.0164,0.0156,0.0129,0.0226,0.0226,0.0226,0.0226,0.0226,-0.0137,-0.0121,-0.013,-0.0106,-0.0085,-0.0022,0.0008,0.0069,0.0119,0.0132,0.0128,0.0091,0.0062,0.0151,0.0151,0.015,0.015,0.015,0.015,-0.0178,-0.0184,-0.0164,-0.017,-0.0132,-0.0106,-0.003,0.0007,0.0054,0.0095,0.0091,0.0084,0.0144,0.0145,0.0146,0.0147,0.0147,0.0148,0.0148,-0.0207,-0.0209,-0.0215,-0.0223,-0.0218,-0.0167,-0.0166,-0.0092,-0.0014,-0.0014,-0.0023,0.0054,0.0045,-0.001,-0.001,-0.001,-0.0011,-0.0011,-0.0011,-0.0234,-0.0239,-0.0272,-0.0278,-0.0297,-0.0299,-0.0246,-0.0217,-0.0129,-0.0103,-0.0033,0.0037,0.0043,0.0037,-0.0015,-0.0014,-0.0014,-0.0013,-0.0013,-0.0261,-0.0274,-0.0326,-0.0358,-0.0409,-0.0415,-0.0371,-0.0307,-0.0282,-0.0236,-0.0138,-0.0131,-0.0115,-0.0106,-0.0116,-0.0215,-0.0216,-0.0217,0,-0.0283,-0.0291,-0.0384,-0.0456,-0.0513,-0.0491,-0.0487,-0.0433,-0.0318,-0.0322,-0.0269,-0.0162,-0.0155,-0.0139,-0.0132,-0.0147,0,0,0,-0.0303,-0.0332,-0.041,-0.0491,-0.0568,-0.053,-0.0488,-0.0469,-0.0333,-0.0314,-0.0241,-0.0234,-0.0127,-0.0026,0.0016,0.0023,0.0016,0,0]}]]